Notices

What's New in latest Release from April 7th, 2021:

- Updated Glossary, including Speed of Maximum Gust, and Total Hourly Precipitation

- Updated national and regional climate services offices contacts and prices information

- Addition of station inventory lists for 1981-2010, 1971-2000, and 1961-1990 Normals.

If you haven't already, please take our survey and provide feedback about our website: https://eccc.sondage-survey.ca/f/LanguageSelection.aspx?s=442ca660-fcf1-47c0-95a9-59707d6fd709

Hourly Data Report for March 20, 2010

HALIFAX STANFIELD INT'L A
NOVA SCOTIA

44°52'48.060" N
63°30'00.050" W
145.40 m
8202250
71395
YHZ

Download Data

Hourly Data (March 2010)
Hourly Data Report for March 20, 2010
TIME
LST
Temp Definition
°C
Dew Point Definition
°C
Rel Hum Definition
%
Precip. Amount Definition
mm

Wind Dir Definition
10's deg

Wind Spd Definition
km/h
Visibility Definition
km
Stn Press Definition
kPa
Hmdx Definition


Wind Chill Definition


Weather Definition


00:00 0.9 -2.5 78   20 22 19.3 99.52     Clear
01:00 1.8 -1.1 81   19 20 24.1 99.50     Mainly Clear
02:00 2.5 0.0 84   20 24 19.3 99.52     Mostly Cloudy
03:00 2.5 0.0 84   20 22 19.3 99.50     Mainly Clear
04:00 3.1 0.5 83   20 32 19.3 99.46     Mostly Cloudy
05:00 3.3 -0.3 77   19 26 19.3 99.43     Mainly Clear
06:00 3.7 1.2 84   19 24 24.1 99.42     Mainly Clear
07:00 4.8 2.9 87   20 28 24.1 99.42     Mainly Clear
08:00 6.5 3.2 79   20 22 24.1 99.39     Mostly Cloudy
09:00 7.9 2.8 70   22 19 24.1 99.42     Mostly Cloudy
10:00 10.6 2.5 57   22 22 24.1 99.42     Mostly Cloudy
11:00 12.7 2.7 51   22 22 24.1 99.37     Mainly Clear
12:00 17.0 3.8 41   22 22 24.1 99.25     Mainly Clear
13:00 18.1 2.7 36   24 24 24.1 99.26     Mainly Clear
14:00 18.4 2.7 35   23 20 24.1 99.23     Mainly Clear
15:00 19.7 3.5 34   21 28 24.1 99.22     Mainly Clear
16:00 19.7 3.2 33   20 22 24.1 99.24     Mainly Clear
17:00 17.4 2.5 37   22 19 24.1 99.30     Mainly Clear
18:00 13.3 2.3 47   21 15 24.1 99.36     Mostly Cloudy
19:00 10.7 2.2 56   29 4 24.1 99.49     Mostly Cloudy
20:00 10.5 1.1 52   31 6 24.1 99.55     Mostly Cloudy
21:00 9.0 0.7 56   28 6 24.1 99.57     Mostly Cloudy
22:00 8.8 1.8 61     0 24.1 99.61     Mostly Cloudy
23:00 8.1 1.5 63   30 19 24.1 99.68     Mostly Cloudy

Notes on Data Quality.

Legend

  • E = Estimated
  • M = Missing
  • NA = Not Available*
  • [empty] = Indicates an unobserved value
Date modified: